Time,TemperatureF,DewpointF,PressureIn,WindDirection,WindDirectionDegrees,WindSpeedMPH,WindSpeedGustMPH,Humidity,HourlyPrecipIn,Conditions,Clouds,dailyrainin,SolarRadiationWatts/m^2,SoftwareType,DateUTC
2013-06-27 00:01:00,58.0,55.0,-100.00,East,87,3.0,5.0,89,-99.99,,,0.00,0.000000,,2013-06-27 06:01:00,
2013-06-27 00:12:00,58.0,55.0,-100.00,East,87,3.0,5.0,89,-99.99,,,0.00,0.000000,,2013-06-27 06:12:00,
2013-06-27 00:43:00,58.0,53.0,-100.00,East,81,3.0,4.0,83,-99.99,,,0.00,0.000000,,2013-06-27 06:43:00,
2013-06-27 00:53:00,58.0,53.0,-100.00,East,81,3.0,4.0,83,-99.99,,,0.00,0.000000,,2013-06-27 06:53:00,
2013-06-27 01:02:00,58.0,53.0,-100.00,East,81,3.0,4.0,83,-99.99,,,0.00,0.000000,,2013-06-27 07:02:00,
2013-06-27 01:12:00,58.0,53.0,-100.00,East,81,3.0,4.0,83,-99.99,,,0.00,0.000000,,2013-06-27 07:12:00,
2013-06-27 01:42:00,56.0,52.0,-100.00,ENE,59,3.0,4.0,86,-99.99,,,0.00,0.000000,,2013-06-27 07:42:00,
2013-06-27 01:52:00,56.0,52.0,-100.00,ENE,59,3.0,4.0,86,-99.99,,,0.00,0.000000,,2013-06-27 07:52:00,
2013-06-27 02:01:00,56.0,52.0,-100.00,ENE,59,3.0,4.0,86,-99.99,,,0.00,0.000000,,2013-06-27 08:01:00,
2013-06-27 02:11:00,56.0,52.0,-100.00,ENE,59,3.0,4.0,86,-99.99,,,0.00,0.000000,,2013-06-27 08:11:00,
2013-06-27 02:43:00,57.0,51.0,-100.00,NE,54,2.0,3.0,80,-99.99,,,0.00,0.000000,,2013-06-27 08:43:00,
2013-06-27 02:52:00,57.0,51.0,-100.00,NE,54,2.0,3.0,80,-99.99,,,0.00,0.000000,,2013-06-27 08:52:00,
2013-06-27 03:02:00,57.0,51.0,-100.00,NE,54,2.0,3.0,80,-99.99,,,0.00,0.000000,,2013-06-27 09:02:00,
2013-06-27 03:11:00,57.0,51.0,-100.00,NE,54,2.0,3.0,80,-99.99,,,0.00,0.000000,,2013-06-27 09:11:00,
2013-06-27 03:43:00,55.0,51.0,-100.00,NNE,28,2.0,4.0,84,-99.99,,,0.00,0.000000,,2013-06-27 09:43:00,
2013-06-27 03:53:00,55.0,51.0,-100.00,NNE,28,2.0,4.0,84,-99.99,,,0.00,0.000000,,2013-06-27 09:53:00,
2013-06-27 04:01:00,55.0,51.0,-100.00,NNE,28,2.0,4.0,84,-99.99,,,0.00,0.000000,,2013-06-27 10:01:00,
2013-06-27 04:11:00,55.0,51.0,-100.00,NNE,28,2.0,4.0,84,-99.99,,,0.00,0.000000,,2013-06-27 10:11:00,
2013-06-27 04:43:00,55.0,51.0,-100.00,NNE,22,2.0,2.0,87,-99.99,,,0.00,0.000000,,2013-06-27 10:43:00,
2013-06-27 04:54:00,55.0,51.0,-100.00,NNE,22,2.0,2.0,87,-99.99,,,0.00,0.000000,,2013-06-27 10:54:00,
2013-06-27 05:01:00,55.0,51.0,-100.00,NNE,22,2.0,2.0,87,-99.99,,,0.00,0.000000,,2013-06-27 11:01:00,
2013-06-27 05:11:00,55.0,51.0,-100.00,NNE,22,2.0,2.0,87,-99.99,,,0.00,0.000000,,2013-06-27 11:11:00,
2013-06-27 05:43:00,52.0,50.0,-100.00,ENE,58,1.0,2.0,92,-99.99,,,0.00,0.000000,,2013-06-27 11:43:00,
2013-06-27 05:52:00,52.0,50.0,-100.00,ENE,58,1.0,2.0,92,-99.99,,,0.00,0.000000,,2013-06-27 11:52:00,
2013-06-27 06:01:00,52.0,50.0,-100.00,ENE,58,1.0,2.0,92,-99.99,,,0.00,0.000000,,2013-06-27 12:01:00,
2013-06-27 06:11:00,52.0,50.0,-100.00,ENE,58,1.0,2.0,92,-99.99,,,0.00,0.000000,,2013-06-27 12:11:00,
2013-06-27 06:42:00,51.0,49.0,-100.00,North,8,2.0,5.0,92,-99.99,,,0.00,8.370000,,2013-06-27 12:42:00,
2013-06-27 07:01:00,51.0,49.0,-100.00,North,8,2.0,5.0,92,-99.99,,,0.00,8.370000,,2013-06-27 13:01:00,
2013-06-27 07:11:00,51.0,49.0,-100.00,North,8,2.0,5.0,92,-99.99,,,0.00,8.370000,,2013-06-27 13:11:00,
2013-06-27 07:43:00,50.0,48.0,-100.00,ESE,117,2.0,3.0,94,-99.99,,,0.00,36.610001,,2013-06-27 13:43:00,
2013-06-27 07:52:00,50.0,48.0,-100.00,ESE,117,2.0,3.0,94,-99.99,,,0.00,36.610001,,2013-06-27 13:52:00,
2013-06-27 08:01:00,50.0,48.0,-100.00,ESE,117,2.0,3.0,94,-99.99,,,0.00,36.610001,,2013-06-27 14:01:00,
2013-06-27 08:11:00,50.0,48.0,-100.00,ESE,117,2.0,3.0,94,-99.99,,,0.00,36.610001,,2013-06-27 14:11:00,
2013-06-27 08:43:00,59.0,51.0,-100.00,North,3,2.0,3.0,73,-99.99,,,0.00,32.080002,,2013-06-27 14:43:00,
2013-06-27 08:52:00,59.0,51.0,-100.00,North,3,2.0,3.0,73,-99.99,,,0.00,32.080002,,2013-06-27 14:52:00,
2013-06-27 09:01:00,59.0,51.0,-100.00,North,3,2.0,3.0,73,-99.99,,,0.00,32.080002,,2013-06-27 15:01:00,
2013-06-27 09:11:00,59.0,51.0,-100.00,North,3,2.0,3.0,73,-99.99,,,0.00,32.080002,,2013-06-27 15:11:00,
2013-06-27 09:42:00,64.0,54.0,-100.00,ENE,76,2.0,4.0,70,-99.99,,,0.00,434.899994,,2013-06-27 15:42:00,
2013-06-27 09:52:00,64.0,54.0,-100.00,ENE,76,2.0,4.0,70,-99.99,,,0.00,434.899994,,2013-06-27 15:52:00,
2013-06-27 10:02:00,64.0,54.0,-100.00,ENE,76,2.0,4.0,70,-99.99,,,0.00,434.899994,,2013-06-27 16:02:00,
2013-06-27 10:11:00,64.0,54.0,-100.00,ENE,76,2.0,4.0,70,-99.99,,,0.00,434.899994,,2013-06-27 16:11:00,
2013-06-27 10:43:00,67.0,54.0,-100.00,South,170,2.0,8.0,62,-99.99,,,0.00,606.549988,,2013-06-27 16:43:00,
2013-06-27 10:53:00,67.0,54.0,-100.00,South,170,2.0,8.0,62,-99.99,,,0.00,606.549988,,2013-06-27 16:53:00,
2013-06-27 11:01:00,67.0,54.0,-100.00,South,170,2.0,8.0,62,-99.99,,,0.00,606.549988,,2013-06-27 17:01:00,
2013-06-27 11:11:00,67.0,54.0,-100.00,South,170,2.0,8.0,62,-99.99,,,0.00,606.549988,,2013-06-27 17:11:00,
2013-06-27 11:43:00,69.0,51.0,-100.00,South,176,2.0,7.0,53,-99.99,,,0.00,752.409973,,2013-06-27 17:43:00,
2013-06-27 11:53:00,69.0,51.0,-100.00,South,176,2.0,7.0,53,-99.99,,,0.00,752.409973,,2013-06-27 17:53:00,
2013-06-27 12:01:00,69.0,51.0,-100.00,South,176,2.0,7.0,53,-99.99,,,0.00,752.409973,,2013-06-27 18:01:00,
2013-06-27 12:11:00,69.0,51.0,-100.00,South,176,2.0,7.0,53,-99.99,,,0.00,752.409973,,2013-06-27 18:11:00,
2013-06-27 13:42:00,72.0,55.0,-100.00,South,185,6.0,9.0,56,-99.99,,,0.00,878.619995,,2013-06-27 19:42:00,
2013-06-27 13:53:00,72.0,55.0,-100.00,South,185,6.0,9.0,56,-99.99,,,0.00,878.619995,,2013-06-27 19:53:00,
2013-06-27 14:01:00,72.0,55.0,-100.00,South,185,6.0,9.0,56,-99.99,,,0.00,878.619995,,2013-06-27 20:01:00,
2013-06-27 14:11:00,72.0,55.0,-100.00,South,185,6.0,9.0,56,-99.99,,,0.00,878.619995,,2013-06-27 20:11:00,
2013-06-27 14:45:00,73.0,55.0,-100.00,SSW,199,5.0,8.0,53,-99.99,,,0.00,880.950012,,2013-06-27 20:45:00,
2013-06-27 14:54:00,73.0,55.0,-100.00,SSW,199,5.0,8.0,53,-99.99,,,0.00,880.950012,,2013-06-27 20:54:00,
2013-06-27 15:01:00,73.0,55.0,-100.00,SSW,199,5.0,8.0,53,-99.99,,,0.00,880.950012,,2013-06-27 21:01:00,
2013-06-27 15:44:00,74.0,55.0,-100.00,SSW,194,5.0,9.0,50,-99.99,,,0.00,863.510010,,2013-06-27 21:44:00,
2013-06-27 16:04:00,74.0,55.0,-100.00,SSW,194,5.0,9.0,50,-99.99,,,0.00,863.510010,,2013-06-27 22:04:00,
2013-06-27 16:13:00,74.0,55.0,-100.00,SSW,194,5.0,9.0,50,-99.99,,,0.00,863.510010,,2013-06-27 22:13:00,
2013-06-27 16:57:00,75.0,57.0,-100.00,SSW,203,6.0,10.0,52,-99.99,,,0.00,736.489990,,2013-06-27 22:57:00,
2013-06-27 17:03:00,75.0,57.0,-100.00,SSW,203,6.0,10.0,52,-99.99,,,0.00,736.489990,,2013-06-27 23:03:00,
2013-06-27 17:13:00,75.0,57.0,-100.00,SSW,203,6.0,10.0,52,-99.99,,,0.00,736.489990,,2013-06-27 23:13:00,
2013-06-27 17:43:00,77.0,54.0,-100.00,South,190,3.0,5.0,46,-99.99,,,0.00,546.119995,,2013-06-27 23:43:00,
2013-06-27 17:57:00,77.0,54.0,-100.00,South,190,3.0,5.0,46,-99.99,,,0.00,546.119995,,2013-06-27 23:57:00,
2013-06-27 18:03:00,77.0,54.0,-100.00,South,190,3.0,5.0,46,-99.99,,,0.00,546.119995,,2013-06-28 00:03:00,
2013-06-27 18:12:00,77.0,54.0,-100.00,South,190,3.0,5.0,46,-99.99,,,0.00,546.119995,,2013-06-28 00:12:00,
2013-06-27 18:44:00,78.0,52.0,-100.00,SW,225,1.0,4.0,41,-99.99,,,0.00,457.209991,,2013-06-28 00:44:00,
2013-06-27 19:03:00,78.0,52.0,-100.00,SW,225,1.0,4.0,41,-99.99,,,0.00,457.209991,,2013-06-28 01:03:00,
2013-06-27 19:12:00,78.0,52.0,-100.00,SW,225,1.0,4.0,41,-99.99,,,0.00,457.209991,,2013-06-28 01:12:00,
2013-06-27 19:45:00,77.0,56.0,-100.00,North,357,3.0,5.0,47,-99.99,,,0.00,172.589996,,2013-06-28 01:45:00,
2013-06-27 19:56:00,77.0,56.0,-100.00,North,357,3.0,5.0,47,-99.99,,,0.00,172.589996,,2013-06-28 01:56:00,
2013-06-27 20:03:00,77.0,56.0,-100.00,North,357,3.0,5.0,47,-99.99,,,0.00,172.589996,,2013-06-28 02:03:00,
2013-06-27 20:13:00,77.0,56.0,-100.00,North,357,3.0,5.0,47,-99.99,,,0.00,172.589996,,2013-06-28 02:13:00,
2013-06-27 20:56:00,77.0,55.0,-100.00,ENE,57,2.0,3.0,46,-99.99,,,0.00,170.029999,,2013-06-28 02:56:00,
2013-06-27 21:03:00,77.0,55.0,-100.00,ENE,57,2.0,3.0,46,-99.99,,,0.00,170.029999,,2013-06-28 03:03:00,
2013-06-27 21:13:00,77.0,55.0,-100.00,ENE,57,2.0,3.0,46,-99.99,,,0.00,170.029999,,2013-06-28 03:13:00,
2013-06-27 21:44:00,74.0,56.0,-100.00,NW,312,2.0,3.0,52,-99.99,,,0.00,24.750000,,2013-06-28 03:44:00,
2013-06-27 21:56:00,74.0,56.0,-100.00,NW,312,2.0,3.0,52,-99.99,,,0.00,24.750000,,2013-06-28 03:56:00,
2013-06-27 22:02:00,74.0,56.0,-100.00,NW,312,2.0,3.0,52,-99.99,,,0.00,24.750000,,2013-06-28 04:02:00,
2013-06-27 22:11:00,74.0,56.0,-100.00,NW,312,2.0,3.0,52,-99.99,,,0.00,24.750000,,2013-06-28 04:11:00,
2013-06-27 22:43:00,67.0,55.0,-100.00,North,2,6.0,9.0,65,-99.99,,,0.00,0.120000,,2013-06-28 04:43:00,
2013-06-27 22:53:00,67.0,55.0,-100.00,North,2,6.0,9.0,65,-99.99,,,0.00,0.120000,,2013-06-28 04:53:00,
2013-06-27 23:01:00,67.0,55.0,-100.00,North,2,6.0,9.0,65,-99.99,,,0.00,0.120000,,2013-06-28 05:01:00,
2013-06-27 23:11:00,67.0,55.0,-100.00,North,2,6.0,9.0,65,-99.99,,,0.00,0.120000,,2013-06-28 05:11:00,
2013-06-27 23:43:00,65.0,53.0,-100.00,NW,314,3.0,8.0,63,-99.99,,,0.00,0.000000,,2013-06-28 05:43:00,
2013-06-27 23:53:00,65.0,53.0,-100.00,NW,314,3.0,8.0,63,-99.99,,,0.00,0.000000,,2013-06-28 05:53:00,